Wind_Speed
13 14 11 12 13 14 15 15 15 15 18 18 17 16 14 13 17 21 21 22 25 29 30 21 17 16 15 13 10 10 10 10 10 11 12 11 11 10 9 9 7 7 7
16 15 13 14 16 17 16 15 15 16 17 14 16 18 17 17 19 19 23 23 22 27 26 25 19 13 13 11 9 10 11 11 12 12 12 13 13 12 10 9 8 6 6
18 17 15 15 16 16 15 15 15 16 17 15 16 20 22 23 19 19 23 21 23 21 18 17 17 10 10 11 12 14 16 15 14 14 12 12 13 13 12 12 12 10 8
19 17 16 15 16 15 15 15 15 17 18 18 20 24 26 27 28 26 26 25 21 19 17 15 14 14 16 17 17 20 17 14 14 12 11 11 12 12 14 12 11 10 10
19 18 17 16 15 16 15 16 17 17 19 20 19 20 22 22 27 30 30 22 21 20 17 17 18 19 19 19 21 20 18 16 13 11 9 10 9 12 12 12 10 12 10
19 18 17 16 16 16 16 18 18 21 21 21 18 18 18 20 22 25 24 26 20 17 18 20 19 20 21 18 19 15 14 13 12 10 9 6 8 10 8 11 10 10 10
19 18 17 16 16 16 16 17 17 19 20 20 19 18 18 16 18 21 21 21 19 17 17 17 18 18 16 15 16 12 10 11 10 9 7 4 6 7 6 9 8 9 9
18 17 16 15 15 15 15 16 17 17 18 18 18 17 16 16 17 18 19 18 17 14 14 16 17 16 15 16 15 10 8 11 11 7 5 4 4 4 5 6 8 8 6
16 15 15 14 15 15 15 15 15 17 17 16 17 16 15 13 14 15 16 15 16 14 13 14 16 15 13 11 9 7 6 9 9 5 4 2 3 4 2 4 6 7 6
16 14 13 13 13 15 15 16 15 16 15 15 14 14 15 14 13 13 14 13 14 14 13 14 14 12 11 9 8 4 3 5 5 2 3 3 2 2 1 1 3 5 6
16 14 13 13 12 13 15 15 15 15 15 14 15 14 12 13 13 12 10 9 9 11 11 12 11 11 11 11 9 6 3 2 5 1 3 5 5 3 2 3 2 3 4
16 15 13 12 13 13 13 14 14 14 14 14 13 13 12 11 10 9 8 8 9 10 11 9 9 10 9 10 12 10 7 5 4 3 6 5 8 7 5 5 4 3 4
15 14 12 12 13 12 13 15 14 14 14 14 13 12 11 11 9 7 6 7 7 7 7 8 8 8 9 9 10 12 12 9 10 11 10 8 9 9 9 7 6 6 6
14 13 12 13 13 14 14 14 14 15 14 14 12 11 11 7 7 7 6 7 6 4 8 8 10 11 10 8 9 8 8 9 10 10 11 14 15 11 10 11 10 8 8
15 14 11 13 13 13 11 13 14 15 13 12 11 11 9 7 8 7 6 5 4 4 6 6 8 10 10 12 10 10 10 12 11 12 13 11 11 15 13 12 12 12 10
16 14 10 11 11 11 7 11 13 14 13 12 13 10 8 8 7 6 8 10 9 7 7 9 10 12 14 12 13 12 10 11 13 15 17 15 12 13 17 14 12 11 12
18 16 8 8 9 9 7 7 10 14 14 15 13 12 11 10 11 12 9 9 10 8 8 9 10 11 14 13 13 12 13 13 16 18 16 16 17 15 17 20 15 11 10
20 19 12 10 10 8 7 8 7 12 12 14 14 13 12 14 13 14 15 12 10 11 10 10 9 12 13 13 12 15 17 19 18 16 18 18 19 18 19 20 17 15 14
24 19 16 13 12 9 8 5 6 9 12 12 13 13 14 12 12 11 11 10 9 8 8 9 9 9 8 8 10 9 11 15 15 17 16 16 14 17 16 22 23 19 18
28 23 17 15 13 9 6 7 9 10 12 13 12 11 9 9 9 8 9 8 8 8 9 9 11 10 10 9 8 8 12 14 15 13 16 18 17 14 16 15 22 25 20
31 27 21 19 16 15 10 10 12 12 14 14 13 11 10 10 10 11 11 11 8 11 11 14 11 11 11 9 8 9 11 12 14 11 8 11 15 16 12 11 19 23 25
30 28 23 22 20 18 10 12 10 10 12 11 11 9 8 7 9 9 10 12 12 14 15 11 12 12 10 7 8 8 6 5 3 0 6 4 2 5 8 7 10 13 17
35 30 25 25 25 19 15 15 13 14 14 15 12 9 8 9 10 11 11 11 11 11 10 11 13 14 11 9 7 5 2 1 3 0 1 3 2 3 4 9 10 9 11
38 31 24 27 26 20 19 19 16 15 11 10 11 8 9 9 7 9 8 8 7 7 9 9 9 8 10 9 6 5 5 3 2 4 4 2 1 0 4 6 8 11 12
41 35 28 25 27 22 21 19 19 17 14 10 9 12 12 7 9 9 9 11 11 13 13 10 8 6 7 7 7 7 6 6 6 5 4 4 3 2 3 7 8 8 3
39 37 28 27 29 24 23 22 22 19 16 14 13 12 10 9 11 10 10 11 11 9 7 7 7 8 8 9 7 8 8 7 8 8 8 8 6 6 6 9 9 11 5
Wind_Direction
151 134 120 113 114 113 108 107 105 123 121 101 92 98 100 136 148 141 146 144 149 159 166 166 152 136 124 124 123 112 103 101 106 106 108 108 106 108 112 108 112 119 125
140 134 129 125 114 108 103 106 111 124 133 106 92 96 86 112 148 140 140 136 140 139 148 156 153 127 128 130 124 112 110 111 110 110 110 106 97 93 98 99 101 114 125
139 141 134 127 118 110 103 105 115 125 130 118 96 104 91 107 107 143 141 129 131 139 144 147 145 122 137 136 121 113 104 102 109 109 107 101 97 92 93 94 86 84 88
142 144 136 129 118 113 109 107 122 125 128 125 104 108 100 95 94 104 131 125 126 128 134 143 152 139 132 126 119 111 106 105 105 103 101 103 95 100 93 92 89 88 89
145 143 138 133 126 117 113 112 121 126 130 129 123 114 108 106 105 108 110 101 116 119 119 129 127 122 122 121 115 114 109 100 99 93 94 92 102 99 98 101 97 86 87
147 144 141 137 129 119 115 117 121 121 130 128 126 121 116 116 117 113 114 107 113 122 130 131 129 127 124 121 125 121 110 103 95 87 87 98 104 93 104 103 98 97 87
145 146 145 144 136 128 123 123 124 128 129 132 132 128 120 122 117 116 120 122 126 131 133 134 131 130 130 126 122 114 112 102 96 85 86 101 105 102 103 99 99 98 92
145 147 146 149 144 139 133 129 127 131 136 134 131 127 127 127 126 127 131 133 130 129 136 140 141 136 132 126 123 126 118 106 97 93 92 109 100 88 106 109 108 96 86
148 149 149 152 148 147 145 138 138 135 137 138 134 134 134 131 129 128 127 128 128 137 139 138 138 141 142 138 134 132 130 122 107 89 63 93 128 96 99 115 113 112 102
150 154 155 159 156 153 149 150 146 142 141 141 137 138 139 136 135 135 129 131 136 133 137 145 153 155 158 161 153 155 181 174 139 122 52 358 289 111 147 180 134 131 123
152 154 153 157 159 161 155 153 156 151 151 151 145 142 142 139 140 137 131 134 134 137 141 143 158 175 183 187 179 197 203 181 204 196 327 321 305 281 234 240 215 157 144
153 154 153 154 159 160 166 159 158 161 162 158 155 151 149 147 144 145 148 144 144 146 159 163 167 166 181 186 201 215 216 240 257 277 298 299 297 285 273 262 247 229 191
151 152 149 153 153 158 166 167 164 160 159 155 149 146 142 148 152 157 167 174 169 177 183 187 181 178 172 175 184 197 215 248 254 269 280 300 292 278 273 268 261 244 237
166 160 155 155 157 157 159 157 160 162 159 164 168 164 169 178 164 159 154 166 164 201 190 194 202 203 195 202 218 221 233 242 257 264 274 272 280 274 277 261 256 252 243
177 172 173 164 158 160 176 186 182 177 175 179 176 179 185 194 193 199 197 198 188 207 209 200 193 197 215 223 230 245 247 246 261 276 277 279 286 271 263 264 256 254 251
186 175 173 168 167 181 176 192 196 196 193 195 199 198 206 207 224 224 230 234 232 232 227 212 227 229 232 238 245 252 259 250 263 270 271 265 267 264 256 257 259 255 252
193 179 173 165 175 182 167 181 205 209 210 205 203 208 220 229 239 241 245 249 237 226 213 225 236 240 241 246 262 274 265 272 275 269 263 259 263 259 246 248 254 250 255
193 190 177 156 148 158 177 196 209 207 207 203 211 219 230 232 240 244 248 253 253 246 244 248 255 259 254 268 282 278 268 270 271 270 265 258 265 257 242 244 249 247 249
196 187 190 166 162 145 158 174 189 188 197 204 207 220 218 222 224 236 239 247 242 242 244 242 259 261 274 279 284 281 267 262 269 274 274 268 278 251 254 249 252 250 259
202 194 196 184 170 162 175 187 180 180 176 179 186 180 181 196 202 207 214 234 248 248 249 257 260 261 265 275 269 264 277 269 275 277 276 268 268 262 261 265 253 247 240
203 197 197 195 187 181 186 199 189 186 193 197 199 198 198 211 212 220 228 235 248 239 245 256 264 275 270 264 274 275 279 282 279 271 286 258 262 260 264 267 263 250 249
203 200 201 201 203 197 188 181 187 195 207 216 227 222 232 247 248 245 238 250 253 255 257 257 268 277 275 279 265 286 284 301 2 303 333 300 188 213 258 255 279 266 255
203 200 210 206 208 206 194 195 210 216 229 233 233 225 242 265 253 248 260 258 267 263 258 262 274 269 272 271 259 254 275 234 340 116 52 74 80 29 313 269 287 269 259
206 207 224 212 207 212 205 213 222 227 235 246 232 240 253 258 266 269 257 271 283 276 266 272 273 262 263 244 227 222 236 264 241 228 231 227 216 74 356 303 262 261 263
209 215 216 217 212 218 218 223 230 231 235 249 236 240 263 264 256 257 261 280 283 282 275 272 260 241 224 219 213 218 238 264 261 256 261 243 234 210 307 301 234 213 251
216 219 218 209 216 220 220 228 231 232 236 238 235 238 249 255 253 267 281 286 290 281 267 250 248 243 230 233 246 254 253 252 257 263 258 279 268 251 275 286 258 214 209
Height
1514 1515 1516 1516 1515 1515 1514 1514 1514 1515 1516 1517 1515 1513 1511 1511 1511 1513 1516 1519 1523 1526 1529 1532 1534 1536 1538 1539 1541 1542 1542 1543 1543 1544 1545 1546 1546 1547 1548 1548 1548 1550 1549
1514 1516 1517 1518 1517 1517 1516 1516 1517 1518 1519 1519 1517 1516 1514 1513 1514 1516 1518 1522 1526 1528 1530 1535 1537 1539 1540 1542 1542 1544 1545 1546 1547 1548 1549 1549 1549 1549 1549 1550 1550 1551 1551
1515 1517 1519 1520 1519 1519 1519 1519 1519 1520 1521 1521 1521 1520 1519 1518 1518 1519 1523 1525 1529 1532 1535 1537 1540 1541 1543 1544 1545 1546 1547 1549 1550 1551 1552 1552 1552 1552 1552 1552 1552 1553 1552
1516 1518 1520 1521 1521 1522 1522 1522 1522 1523 1523 1525 1525 1524 1524 1524 1522 1524 1528 1530 1530 1534 1537 1540 1542 1544 1546 1547 1548 1549 1551 1553 1554 1554 1555 1555 1554 1554 1553 1554 1555 1555 1555
1518 1519 1521 1523 1523 1524 1524 1525 1525 1525 1526 1528 1528 1528 1529 1529 1529 1530 1533 1536 1536 1539 1540 1543 1545 1547 1549 1550 1551 1553 1554 1555 1556 1557 1558 1557 1557 1556 1556 1557 1557 1556 1557
1520 1521 1523 1525 1526 1527 1527 1528 1528 1528 1529 1531 1532 1532 1532 1533 1534 1535 1537 1538 1541 1544 1546 1547 1548 1550 1552 1553 1554 1556 1557 1558 1558 1559 1559 1559 1559 1558 1559 1558 1559 1559 1559
1522 1524 1525 1527 1528 1529 1530 1531 1532 1532 1533 1534 1535 1536 1536 1537 1538 1539 1541 1542 1544 1546 1548 1549 1551 1553 1555 1556 1557 1558 1559 1559 1560 1560 1561 1561 1560 1560 1560 1560 1560 1560 1561
1525 1526 1528 1529 1530 1531 1532 1533 1535 1536 1536 1537 1537 1538 1539 1541 1541 1543 1544 1546 1547 1549 1551 1552 1554 1555 1557 1558 1559 1560 1561 1561 1561 1561 1561 1562 1562 1562 1562 1562 1561 1562 1562
1527 1529 1530 1531 1532 1533 1534 1536 1537 1538 1538 1539 1540 1542 1543 1544 1545 1546 1547 1548 1550 1551 1551 1555 1556 1558 1559 1560 1561 1562 1562 1562 1563 1563 1563 1563 1563 1563 1564 1564 1563 1563 1563
1530 1531 1532 1533 1534 1535 1536 1537 1538 1539 1541 1541 1543 1544 1546 1547 1548 1549 1550 1552 1554 1554 1556 1556 1559 1560 1561 1561 1562 1563 1563 1563 1564 1565 1564 1565 1565 1565 1566 1566 1566 1565 1565
1531 1533 1534 1535 1536 1537 1537 1539 1540 1541 1542 1543 1545 1546 1547 1549 1550 1552 1554 1554 1555 1557 1558 1559 1560 1561 1562 1562 1562 1564 1564 1565 1566 1566 1566 1567 1567 1566 1567 1568 1568 1568 1567
1533 1534 1536 1536 1537 1538 1539 1540 1541 1543 1544 1546 1546 1548 1550 1551 1552 1553 1554 1556 1557 1558 1560 1560 1561 1561 1563 1563 1564 1565 1565 1566 1567 1567 1568 1568 1568 1567 1567 1568 1569 1570 1569
1534 1536 1537 1538 1538 1539 1540 1542 1542 1544 1545 1547 1549 1549 1550 1552 1553 1553 1554 1555 1557 1559 1560 1561 1562 1562 1563 1563 1565 1566 1567 1567 1567 1567 1568 1567 1568 1568 1568 1568 1569 1569 1570
1534 1536 1538 1538 1539 1540 1542 1543 1544 1544 1546 1548 1550 1551 1552 1552 1553 1554 1555 1556 1557 1559 1559 1560 1561 1562 1563 1564 1564 1565 1566 1567 1568 1567 1566 1567 1567 1568 1569 1569 1569 1569 1570
1535 1536 1537 1538 1539 1541 1542 1543 1544 1545 1547 1548 1549 1551 1552 1553 1554 1554 1555 1557 1558 1559 1560 1561 1561 1562 1563 1564 1564 1564 1564 1565 1566 1566 1565 1565 1566 1567 1568 1568 1568 1569 1570
1535 1536 1537 1537 1539 1541 1542 1543 1545 1546 1547 1548 1549 1550 1551 1552 1553 1554 1555 1555 1557 1558 1559 1560 1561 1561 1561 1562 1562 1562 1563 1563 1563 1563 1563 1562 1563 1564 1566 1566 1566 1567 1568
1535 1536 1537 1537 1538 1541 1542 1543 1544 1546 1547 1548 1548 1549 1550 1552 1553 1554 1554 1555 1556 1557 1558 1559 1559 1560 1560 1560 1560 1560 1561 1561 1561 1560 1560 1560 1559 1560 1561 1563 1564 1565 1565
1534 1535 1537 1538 1539 1541 1542 1543 1543 1544 1545 1546 1547 1549 1549 1551 1552 1553 1554 1554 1554 1555 1556 1556 1557 1557 1557 1557 1557 1557 1558 1558 1558 1557 1556 1556 1556 1557 1558 1559 1561 1562 1563
1532 1534 1536 1538 1540 1541 1542 1543 1543 1543 1543 1545 1546 1547 1548 1549 1551 1552 1553 1553 1553 1553 1554 1554 1555 1555 1555 1555 1555 1555 1555 1555 1555 1554 1553 1552 1553 1553 1554 1555 1557 1558 1557
1531 1533 1536 1538 1540 1541 1541 1542 1542 1543 1543 1543 1546 1546 1547 1549 1550 1550 1551 1552 1552 1552 1552 1552 1553 1552 1554 1554 1553 1554 1553 1553 1553 1551 1549 1548 1549 1550 1552 1552 1553 1553 1552
1530 1533 1535 1536 1538 1539 1540 1540 1541 1542 1543 1544 1545 1546 1548 1548 1548 1548 1549 1549 1550 1551 1551 1551 1550 1550 1551 1551 1550 1550 1550 1550 1549 1548 1547 1545 1546 1547 1548 1550 1549 1549 1548
1527 1531 1533 1535 1536 1538 1539 1540 1541 1541 1542 1544 1545 1546 1547 1547 1547 1547 1547 1548 1548 1548 1548 1548 1548 1548 1548 1548 1548 1548 1547 1547 1546 1546 1545 1544 1544 1545 1546 1546 1544 1542 1542
1526 1528 1530 1532 1534 1536 1538 1539 1540 1540 1541 1542 1543 1544 1545 1545 1545 1546 1545 1545 1545 1546 1546 1545 1545 1544 1545 1545 1545 1547 1546 1546 1545 1545 1544 1544 1544 1544 1544 1543 1543 1541 1541
1523 1527 1527 1531 1532 1534 1536 1538 1539 1540 1541 1542 1543 1545 1545 1544 1545 1546 1545 1545 1544 1544 1544 1543 1543 1543 1543 1543 1544 1545 1545 1545 1544 1544 1543 1543 1543 1543 1542 1540 1540 1539 1540
1520 1524 1526 1529 1532 1534 1535 1537 1539 1540 1542 1542 1543 1545 1545 1545 1545 1545 1545 1544 1544 1543 1543 1542 1542 1542 1542 1543 1543 1544 1544 1544 1543 1543 1542 1542 1541 1541 1539 1537 1537 1538 1538
1520 1523 1524 1529 1531 1534 1535 1537 1538 1539 1542 1543 1544 1545 1546 1546 1546 1544 1544 1544 1542 1542 1542 1542 1542 1543 1542 1542 1543 1543 1543 1543 1541 1541 1541 1540 1539 1539 1537 1535 1534 1536 1537